Location: Monrovia
(34.7865°N, 86.7139°W)
Time: 00:18:32
(UTC+00:00)

Cosmos 1544 - Pass Details

Date: 14 July 2020
Orbit: 473 x 490 km, 82.5° (Epoch: 12 August)

Event Time Altitude Azimuth Distance (km) Brightness Sun altitude
Exits shadow 09:17:23 33° 219° (SW) 816 3.6 -15.6°
Maximum altitude 09:18:41 53° 278° (W) 590 3.2 -15.4°
Drops below altitude 10° 09:22:11 10° 356° (N) 1,644 6.2 -14.9°
Sets 09:24:20 0° 2° (N) 2,526 7.3 -14.5°
